Dewpoint
73 73 73 73 73 73 73 73 73 72 72 72 72 72 72 72 72 72 72 72 73 73 73 72 72 72 72 72 72 72 72 72 72 71 71 70 70 70 70 70 70 70 70 70 70 70 69 68 65 64 64 65 65 65 64 64 64 64 63 64 64 63 63 67 69 69 68 68 68 68 69 69 69 69 68 68 68 67 67 66 65 64 64 64 64 64 64 65 65 65 65 66 66 67 67 66 65 64 64 64 64 65 66
73 73 73 73 73 73 73 73 73 72 72 72 72 72 72 72 72 72 72 72 73 73 73 72 72 72 72 72 72 72 72 72 72 71 71 71 70 70 70 70 70 70 70 70 70 69 69 67 65 64 64 65 65 65 64 64 64 64 63 64 64 64 64 68 69 69 68 68 68 68 68 68 68 68 68 68 68 67 67 66 66 65 64 64 64 64 64 64 64 64 65 65 65 65 66 65 65 64 64 64 64 65 67
73 73 73 73 73 73 73 73 73 72 72 72 72 72 72 72 72 72 72 73 73 73 73 73 72 72 72 72 72 72 72 72 72 72 71 71 70 70 70 70 70 71 70 70 70 69 68 67 65 64 64 64 64 64 64 64 64 63 63 64 64 64 65 68 69 69 68 68 68 68 68 68 68 68 67 67 67 67 67 66 66 65 65 65 64 64 64 64 64 64 65 64 64 64 65 65 64 64 64 63 64 64 66
73 73 73 73 74 74 73 73 73 73 72 72 72 72 72 72 72 72 72 73 73 73 73 73 72 72 72 72 72 72 72 72 72 72 72 71 71 70 70 71 71 71 71 70 69 68 67 66 65 63 63 63 64 64 64 64 64 63 63 64 64 64 66 68 69 69 68 68 68 68 68 67 67 67 67 67 67 67 67 66 66 65 65 65 64 64 64 64 64 64 64 64 64 64 64 64 64 64 64 63 63 64 65
73 73 73 73 74 74 74 73 73 73 73 72 72 72 72 72 72 72 72 73 73 73 73 72 72 72 72 71 71 71 71 71 71 71 71 71 71 71 70 71 71 71 71 70 69 68 66 65 64 64 62 61 62 62 62 63 64 64 63 64 64 65 68 69 69 69 68 68 67 67 67 67 67 66 66 66 66 66 67 66 65 65 65 64 64 64 64 64 64 64 64 64 64 64 64 64 64 64 64 63 63 63 64
73 73 73 73 73 74 74 73 73 73 73 73 72 72 72 72 72 72 72 72 73 73 72 72 72 72 72 71 71 71 71 71 71 71 71 71 71 71 71 71 71 71 71 70 69 68 66 64 64 64 62 61 60 61 61 63 63 64 63 64 64 66 68 68 69 69 68 68 67 67 67 66 66 66 66 66 66 66 66 66 65 65 64 64 64 64 64 64 64 64 65 64 64 64 64 65 65 64 64 64 63 63 64
73 73 73 73 73 73 74 73 73 73 73 72 72 72 72 72 72 72 72 72 72 72 72 72 72 72 72 72 71 71 71 71 70 70 70 71 71 71 71 71 71 71 70 70 69 68 66 64 64 64 62 60 59 60 61 62 63 63 63 64 65 68 68 68 68 69 68 68 67 66 66 66 66 65 65 65 65 65 66 65 65 65 64 64 64 64 64 64 64 65 65 64 64 64 64 65 65 65 64 64 63 63 63
73 73 73 73 73 73 73 73 73 73 73 72 72 72 72 72 72 72 72 72 72 72 72 72 72 72 72 72 72 71 71 71 71 70 70 71 71 71 71 72 71 71 70 69 69 68 67 65 64 63 62 60 59 60 61 62 63 63 63 64 65 67 68 68 68 69 69 68 68 66 66 66 65 65 65 65 65 65 65 65 65 65 64 64 64 64 64 64 65 65 65 65 64 64 64 65 65 65 65 64 63 63 63
73 73 73 73 73 73 73 73 73 73 72 72 72 72 72 72 72 72 72 72 72 72 72 72 72 72 72 72 72 71 71 71 71 71 71 71 71 72 72 72 71 71 70 69 69 68 67 65 64 63 63 60 60 61 62 62 63 63 64 64 65 67 68 68 68 69 71 70 68 67 66 65 65 65 65 65 65 65 65 65 65 65 65 64 64 64 64 64 64 65 66 65 65 65 66 66 66 65 65 64 63 63 62
73 73 73 73 73 73 73 73 73 73 73 72 72 72 72 72 72 72 72 72 72 72 72 72 72 72 72 72 72 72 71 71 71 71 71 71 72 72 72 72 71 70 70 69 69 68 68 65 64 62 62 60 60 61 64 63 63 63 63 64 66 67 68 68 69 70 71 70 69 67 66 65 65 65 65 65 65 65 65 65 65 65 65 65 64 64 64 64 64 65 66 66 66 67 68 68 67 65 65 64 63 63 62
73 73 73 72 72 73 73 73 73 73 73 73 72 72 72 72 72 72 72 72 72 72 72 72 72 72 72 72 72 72 72 72 72 72 72 72 72 72 72 71 71 70 70 69 68 68 68 65 63 62 62 60 60 62 63 64 64 64 64 65 67 68 68 68 69 70 71 70 69 68 66 66 65 65 65 65 65 65 65 65 65 65 65 65 65 65 64 64 65 65 66 66 66 67 68 68 67 66 65 64 64 63 62
73 72 72 72 72 72 72 73 73 73 73 73 73 73 72 72 72 72 73 72 72 73 73 73 72 72 72 72 72 72 72 72 72 72 72 72 72 72 72 71 70 70 69 69 68 68 66 64 63 62 61 60 60 61 61 63 64 64 64 66 67 68 68 68 69 70 71 70 69 68 66 66 66 66 66 66 66 65 65 65 65 66 66 66 65 65 65 65 65 66 67 66 67 67 69 68 67 66 65 64 64 63 63
72 72 71 71 71 72 72 72 72 73 73 73 73 73 73 73 73 73 73 73 72 72 72 73 73 73 73 72 72 72 72 72 72 72 72 72 72 72 71 71 70 70 69 69 68 67 64 63 63 62 62 61 60 59 60 63 64 64 65 67 68 68 68 69 69 70 71 70 69 68 66 66 66 66 66 66 66 66 65 66 66 66 66 66 66 66 65 65 66 66 67 67 67 68 69 69 68 67 65 64 64 63 63
69 69 69 69 70 71 71 72 72 72 72 72 73 73 73 73 73 73 73 73 72 72 72 72 73 73 73 73 73 72 72 72 72 72 72 72 72 71 71 70 70 69 69 68 67 65 64 63 63 62 62 61 60 59 61 63 64 65 66 68 68 68 69 69 69 70 71 70 69 68 67 67 67 67 67 66 66 66 66 66 66 66 67 67 67 67 66 66 66 67 68 68 68 68 69 69 68 67 65 65 64 64 63
66 66 66 67 68 69 70 71 71 72 72 72 72 73 73 73 73 73 73 73 73 72 72 72 73 73 73 73 73 72 72 72 72 72 72 71 71 71 70 70 70 69 69 67 66 65 64 63 63 63 63 61 60 60 61 62 63 65 68 68 68 69 69 69 70 70 71 70 69 68 67 67 67 67 67 67 66 66 66 66 66 67 67 68 68 67 67 66 66 67 68 68 69 69 69 68 68 67 66 65 64 64 64
64 64 65 67 68 68 69 70 70 71 71 72 72 72 72 72 73 73 73 73 73 73 72 72 73 73 73 73 72 72 71 71 71 71 71 71 71 70 70 70 69 69 68 66 65 65 64 63 62 63 63 61 60 60 60 61 62 65 68 68 69 69 69 70 70 70 70 70 69 68 67 67 67 67 67 67 67 66 66 66 66 67 68 68 68 68 67 66 66 67 68 68 68 69 68 68 68 67 67 66 65 64 64
64 64 65 67 68 68 69 69 70 70 71 71 72 72 72 72 72 72 73 73 73 73 73 73 73 73 72 72 72 71 69 69 70 70 70 70 70 70 69 69 68 68 67 66 65 64 64 63 63 62 62 61 60 60 60 60 62 64 67 68 69 69 69 70 70 70 70 70 69 68 68 68 68 68 67 67 67 67 66 66 66 67 67 68 68 68 68 67 67 67 67 68 68 68 68 68 67 67 67 66 65 65 64
64 65 67 67 68 68 68 69 69 70 70 71 71 71 72 72 72 72 72 72 73 73 73 73 72 72 72 72 71 69 68 68 68 69 69 70 70 69 69 69 68 68 67 66 65 64 64 63 63 63 62 61 60 60 61 60 62 64 66 68 68 69 69 70 70 70 70 70 69 69 68 68 68 68 67 67 67 67 67 66 66 67 67 67 68 68 68 67 67 66 66 67 68 68 68 67 66 66 66 66 66 65 64
64 66 67 67 68 68 68 68 68 69 69 70 70 71 71 72 72 72 71 72 72 72 72 72 72 72 71 71 70 69 68 68 68 68 69 69 69 68 68 69 69 68 67 67 65 64 64 63 63 63 63 62 61 61 61 61 63 64 65 67 68 68 69 70 70 70 70 70 70 69 68 68 68 68 68 68 67 67 67 66 66 66 67 67 67 67 68 67 67 67 66 67 67 67 67 67 66 65 65 65 65 65 65
64 66 67 67 68 68 68 68 68 68 69 69 70 70 71 71 71 71 71 71 71 72 72 72 72 71 71 70 69 69 69 68 69 69 70 70 69 68 68 69 69 69 68 67 66 64 64 64 64 64 64 62 61 61 61 62 63 65 65 66 67 68 69 69 70 70 70 70 70 69 69 68 68 68 68 68 68 67 67 67 66 66 66 67 67 67 67 67 67 67 66 66 66 67 67 66 66 65 65 65 65 65 65
65 66 67 67 68 68 68 68 68 68 69 69 69 69 70 70 70 71 70 71 71 71 71 71 71 70 70 69 69 70 70 70 70 70 70 70 70 69 69 69 69 69 68 67 66 65 64 64 64 64 63 63 62 61 61 62 64 65 65 66 66 67 68 69 69 70 70 70 70 70 69 69 68 68 68 68 68 68 67 67 66 66 66 66 66 66 66 67 67 67 67 66 66 66 66 66 65 65 65 65 65 65 65
65 66 67 67 68 68 68 68 68 69 69 69 69 70 70 70 70 70 69 70 70 71 71 71 70 70 69 69 70 70 70 70 70 70 69 69 69 69 69 69 69 69 68 67 66 66 65 64 64 64 63 63 62 61 61 63 64 65 66 66 66 67 68 68 69 70 70 70 70 70 70 69 69 68 68 68 68 68 67 67 67 66 66 66 66 66 66 66 67 67 67 67 66 66 66 65 65 65 65 65 65 65 65
65 65 66 67 67 68 68 68 69 69 69 68 69 70 70 70 70 70 69 70 70 70 70 70 70 70 70 70 70 70 70 70 70 70 70 69 69 69 69 69 69 68 68 67 67 66 66 65 65 64 64 63 63 62 62 64 64 65 66 66 66 67 67 68 69 69 70 70 71 71 71 70 70 69 68 68 68 68 68 67 67 66 66 66 66 66 66 66 66 67 67 67 66 66 65 65 65 65 65 65 65 65 65
64 64 65 66 66 67 68 68 69 69 69 69 69 70 70 70 70 70 70 70 69 69 69 69 69 70 70 70 70 70 70 70 70 70 69 69 69 69 69 69 69 69 68 68 68 67 66 66 66 65 65 64 64 63 62 63 64 65 66 66 66 66 67 68 68 69 70 70 71 71 71 71 70 70 69 69 68 68 68 67 67 66 66 66 66 66 66 66 66 67 67 67 67 66 66 65 65 65 65 65 65 65 65
62 62 63 64 65 66 67 68 68 69 69 69 70 70 70 70 70 70 70 70 69 69 69 69 69 69 69 69 69 69 69 70 70 69 69 69 69 69 69 69 69 68 68 68 68 68 67 67 66 66 66 64 64 63 63 63 64 65 66 66 66 66 67 67 68 69 70 70 71 71 71 71 71 70 70 69 69 68 68 67 67 66 66 66 66 66 66 66 66 67 67 67 67 67 66 66 65 65 65 65 65 65 65
60 61 62 63 63 64 65 67 68 68 69 69 70 70 70 70 70 70 70 70 70 69 69 69 69 69 69 69 69 69 69 69 69 69 69 69 69 69 69 69 69 68 68 68 68 68 67 67 67 67 66 65 64 64 63 63 64 65 65 66 66 66 67 67 68 68 69 70 70 71 71 71 71 70 70 69 69 68 68 67 67 67 66 66 66 66 66 66 66 67 67 67 68 67 67 66 65 65 65 65 65 65 65
59 59 60 61 62 63 64 65 66 68 68 69 70 70 69 69 69 70 70 70 70 69 69 69 68 68 68 68 68 68 68 68 68 68 68 69 69 69 69 69 68 68 68 68 68 68 68 67 67 67 67 66 65 64 63 64 64 64 65 65 66 66 66 67 67 68 68 69 70 70 71 71 71 70 70 69 69 68 68 67 67 67 66 66 66 67 67 67 67 67 67 67 68 68 67 67 66 65 65 65 65 65 65
57 58 59 60 61 62 63 64 64 66 67 68 69 69 69 69 69 69 69 69 69 69 69 68 68 68 68 68 68 68 68 68 68 68 68 68 68 68 68 68 68 68 68 68 68 68 68 67 67 67 67 67 66 65 64 63 64 64 64 65 65 65 66 66 66 67 68 68 69 70 70 71 71 70 70 70 69 68 68 67 67 67 67 67 67 67 67 67 67 67 67 67 67 68 68 67 67 66 65 65 65 65 65
56 57 58 59 60 61 62 63 63 64 65 65 67 68 69 69 69 69 69 69 69 69 69 68 68 68 68 68 68 68 68 68 68 68 68 68 68 68 68 68 68 68 68 68 68 68 68 68 67 67 67 67 67 66 65 64 63 64 64 64 64 65 65 65 66 66 67 68 68 69 70 70 71 71 70 70 69 69 68 68 67 67 67 67 67 67 67 67 67 67 67 67 67 67 68 67 67 66 66 65 65 65 65
55 56 57 58 59 59 60 61 62 63 64 64 65 66 68 68 69 69 68 68 68 68 68 68 68 68 68 68 68 68 68 68 68 68 68 68 68 68 68 68 68 68 68 68 68 68 68 68 67 67 67 67 67 67 66 65 63 63 63 64 64 64 64 65 65 65 66 67 68 68 69 70 71 71 71 70 70 69 68 68 67 67 67 67 67 67 67 67 67 67 67 67 67 67 68 67 67 67 66 66 65 65 64
54 55 55 56 57 58 59 60 61 61 63 64 64 64 64 66 68 68 68 68 68 68 68 68 68 68 68 68 68 68 68 68 68 68 68 68 68 68 68 68 68 68 68 68 68 68 68 68 67 67 67 67 67 67 67 67 65 64 63 63 63 63 64 64 64 65 65 66 67 68 68 69 70 71 71 71 70 69 69 68 68 68 67 67 67 67 67 67 67 67 67 67 67 67 68 67 67 67 67 67 66 65 65
52 53 54 55 55 56 58 59 59 60 61 62 63 63 63 63 64 66 68 68 68 68 68 68 68 68 68 68 68 68 68 68 68 68 68 68 68 68 68 68 68 68 68 68 68 68 68 67 67 67 67 67 67 67 67 67 66 65 64 63 63 63 63 64 64 64 65 65 66 67 67 68 69 70 70 71 70 70 69 68 68 68 68 67 67 67 67 67 67 67 67 67 67 68 68 67 67 67 68 67 67 66 65
51 51 52 52 53 55 56 57 58 59 60 60 61 62 63 63 63 63 64 66 67 68 68 68 68 68 68 68 68 68 68 68 68 68 68 68 68 67 67 68 68 68 68 68 68 67 67 67 67 67 66 66 66 66 66 66 66 65 64 63 63 63 63 63 63 64 64 64 65 66 67 67 68 69 70 70 70 70 69 69 68 68 68 68 67 67 67 67 67 67 67 67 67 68 68 68 68 68 68 68 67 66 65
50 50 51 51 52 53 55 55 56 58 59 59 60 61 61 62 62 62 63 63 64 65 67 68 68 68 68 68 68 68 68 68 68 67 67 67 67 67 67 67 67 68 68 68 67 67 67 66 66 66 66 66 65 65 65 65 65 64 64 63 62 62 62 62 63 63 63 64 64 65 66 67 67 68 69 69 70 70 70 69 69 68 68 68 68 67 67 67 67 67 67 67 67 67 68 68 68 68 68 68 68 67 66
49 50 50 50 51 52 53 54 55 56 58 59 59 59 59 60 61 62 63 63 63 63 65 66 67 68 68 68 68 68 68 68 68 68 67 67 67 67 67 67 67 67 66 67 67 67 67 66 66 65 64 64 64 64 64 64 64 64 64 63 62 61 62 62 62 62 63 63 64 64 65 66 67 68 68 69 69 70 70 70 69 69 68 68 68 68 67 67 67 67 66 67 67 67 68 68 68 68 68 68 68 67 66
49 49 49 50 50 50 50 52 53 55 56 57 58 58 58 59 60 61 62 62 62 63 64 65 66 67 68 68 67 67 66 67 67 68 67 67 67 66 67 67 67 67 66 66 66 66 66 66 65 65 64 64 64 64 64 64 63 63 63 63 62 61 61 61 61 62 62 62 63 64 64 65 66 67 68 68 69 69 70 70 70 69 69 69 68 68 68 68 67 67 67 66 66 67 67 68 68 68 68 68 68 68 67
48 48 48 48 49 49 49 50 51 53 54 55 56 57 57 59 60 60 61 62 62 62 63 64 65 66 67 66 66 66 66 66 67 67 67 67 67 67 67 67 67 67 67 66 66 66 65 65 65 65 65 64 64 63 63 63 62 62 62 62 62 61 60 60 60 60 61 62 62 63 64 64 65 66 67 68 68 69 69 69 70 70 69 69 69 69 68 68 68 67 67 66 66 66 67 67 68 68 68 68 68 68 67
47 47 47 47 47 47 48 49 50 52 54 55 55 56 57 58 59 59 60 61 61 62 63 64 64 65 66 66 66 65 65 66 66 66 66 66 67 67 67 67 67 67 66 66 66 66 66 66 66 66 65 65 64 64 64 63 63 62 62 62 61 61 60 60 59 59 59 60 61 62 63 64 64 65 66 67 68 68 68 69 69 69 69 69 69 69 69 68 68 68 67 67 67 66 66 67 67 68 68 68 68 68 67
47 47 47 47 46 47 47 48 49 51 53 53 54 55 56 57 58 58 59 59 60 61 62 62 63 64 64 65 65 66 66 65 65 65 64 65 65 65 65 65 66 66 65 65 66 66 66 65 65 66 66 66 66 65 65 64 64 63 63 62 62 61 60 60 59 59 59 59 60 61 63 63 64 64 65 66 67 68 68 69 69 69 69 69 69 69 69 69 68 68 68 67 67 67 66 67 67 67 68 68 68 68 67
47 47 46 46 46 47 48 48 48 50 50 51 52 53 54 55 56 57 58 58 59 60 60 61 62 62 63 64 64 65 65 65 64 64 64 64 63 63 63 63 64 64 64 64 64 64 64 64 64 65 65 66 66 66 65 65 64 64 64 64 63 62 61 60 59 59 59 59 60 60 62 63 64 64 65 65 66 67 68 68 69 69 69 69 69 69 69 69 68 68 68 68 68 67 67 67 67 67 67 68 68 67 67
47 47 47 46 46 47 47 47 48 49 50 50 51 52 53 54 55 55 56 56 57 58 59 60 61 61 61 62 63 63 64 65 65 64 64 63 63 62 62 62 62 63 64 64 64 64 64 63 63 64 64 64 64 64 64 64 64 64 64 64 64 63 62 61 60 59 59 59 59 60 60 62 63 64 64 65 66 66 67 68 68 69 69 69 69 69 69 69 69 68 68 68 68 68 67 67 67 66 67 67 67 67 66
47 47 47 47 47 47 47 47 47 48 49 50 50 50 52 53 54 55 55 55 56 57 58 59 59 60 61 61 61 62 62 64 64 65 64 64 64 64 64 64 64 64 64 64 64 64 63 63 63 62 62 63 63 63 64 64 64 64 64 64 64 64 63 62 61 60 59 59 59 59 59 61 62 63 64 64 65 66 66 67 68 68 68 69 69 69 68 68 68 68 68 68 68 68 68 68 67 67 66 67 67 67 66
47 47 47 47 47 47 47 47 48 48 49 49 50 50 51 52 53 54 55 55 55 55 57 57 58 59 60 60 61 60 60 61 62 64 64 64 64 64 64 64 64 64 64 64 63 63 62 62 62 62 62 62 62 63 63 63 64 64 64 64 64 63 63 62 62 61 60 59 59 59 59 60 61 63 63 64 64 65 65 66 67 67 68 68 68 69 68 68 68 68 68 68 68 68 68 68 68 67 67 67 67 66 66
48 48 47 47 47 47 47 47 48 48 48 49 49 50 50 51 52 53 54 54 55 55 55 56 57 58 59 59 59 60 59 59 60 61 62 63 63 63 63 63 63 63 63 63 62 62 62 62 62 62 62 62 62 62 63 63 63 63 63 63 63 63 62 62 62 61 60 60 59 59 59 59 60 61 63 63 64 64 64 65 65 66 67 68 68 68 68 68 68 68 68 68 68 69 69 68 68 68 67 67 67 67 66
48 48 47 47 47 47 47 47 47 48 48 48 49 49 50 50 51 52 53 54 54 55 55 55 55 56 57 58 59 59 59 59 59 60 61 62 62 62 62 62 62 62 62 62 63 63 63 63 63 63 63 63 63 62 62 62 62 62 62 62 62 62 62 62 61 61 61 60 59 59 59 59 59 60 61 62 63 64 64 64 64 65 66 67 68 68 68 68 68 68 68 68 68 69 69 69 68 68 68 68 67 67 66
47 47 47 47 47 47 47 47 47 47 48 48 48 48 49 49 50 51 52 52 53 54 53 54 54 55 56 57 58 58 59 59 59 60 60 60 60 61 61 62 62 62 63 63 63 63 64 64 64 64 63 63 62 62 61 60 60 61 61 61 61 61 61 61 61 61 60 60 59 59 59 59 59 59 60 61 62 63 63 63 64 64 65 66 67 68 68 68 68 68 68 68 68 68 68 69 68 68 68 68 68 67 67
47 47 47 47 47 47 47 47 47 47 47 48 48 48 48 48 49 50 50 51 52 52 53 53 53 54 54 56 57 57 58 58 59 59 59 59 59 59 60 60 61 62 63 63 63 63 63 62 62 61 61 61 61 60 60 60 60 61 61 61 60 60 60 60 60 60 60 60 59 59 59 59 59 59 59 60 60 61 62 62 63 63 64 65 66 67 68 67 68 68 68 68 68 68 68 68 68 68 68 68 68 68 67
47 47 47 47 47 47 47 47 47 47 47 47 47 47 47 47 48 48 49 50 51 52 53 53 53 53 54 55 55 56 56 57 58 58 58 59 59 59 59 59 59 60 61 62 62 62 62 61 60 59 59 60 60 60 60 61 61 61 61 60 59 59 59 59 59 59 59 59 59 59 59 59 59 59 59 59 60 60 61 61 62 62 63 64 64 65 66 66 66 67 68 68 68 68 68 68 68 68 69 68 68 68 68
47 48 47 47 47 46 47 47 47 47 47 47 46 46 46 46 47 48 49 50 51 51 52 53 53 53 52 53 54 55 55 56 56 57 58 58 57 56 56 56 56 57 58 59 61 62 62 62 62 61 61 61 61 61 62 62 62 61 60 59 59 58 58 58 58 58 59 59 59 59 59 59 59 59 59 59 60 60 60 60 61 61 62 63 63 64 65 65 65 66 67 68 68 68 68 68 68 68 68 68 68 68 68
46 47 47 47 47 46 46 46 47 47 47 46 46 46 47 47 48 49 49 49 49 50 50 51 52 53 52 52 52 53 54 55 55 56 56 57 55 54 53 53 53 53 54 56 58 60 61 62 62 62 62 63 63 62 62 61 60 59 58 58 58 58 58 58 58 58 58 58 58 58 58 58 58 59 59 59 59 60 60 61 61 60 60 61 62 62 63 64 64 64 65 67 68 68 68 68 68 68 68 68 68 68 68
46 47 47 46 46 46 46 46 46 46 46 47 47 48 48 48 48 48 48 47 47 48 49 49 50 52 53 52 52 53 54 55 55 55 54 54 53 52 52 52 51 51 52 53 54 56 58 59 60 61 61 61 61 60 59 58 57 56 56 56 56 56 57 57 57 57 57 57 57 58 58 58 58 58 58 59 59 59 60 61 61 61 61 61 61 61 61 62 62 63 64 65 66 67 68 68 68 68 68 68 68 68 68
46 46 46 46 46 46 46 46 46 46 47 47 47 47 47 46 46 47 47 47 47 47 48 49 49 50 51 52 52 53 54 55 55 55 54 53 53 54 55 54 52 50 48 48 49 50 53 55 56 58 59 59 59 59 58 56 55 55 55 55 55 55 56 56 56 56 56 56 56 57 57 57 58 58 58 58 58 58 59 59 60 60 61 61 61 60 60 60 60 60 62 64 65 65 66 67 68 68 68 68 68 68 68
46 46 46 46 46 46 46 46 46 46 46 46 46 46 46 46 46 46 47 47 47 48 49 49 49 49 49 50 50 51 52 54 55 55 56 54 54 54 55 54 51 49 47 46 46 46 47 49 50 52 55 57 57 57 57 56 55 55 54 54 54 55 55 55 55 55 55 55 55 55 56 56 57 57 58 58 58 58 58 59 59 60 60 61 61 60 60 59 58 58 59 60 62 64 64 65 66 67 68 68 68 68 68
46 46 46 46 46 46 46 46 46 46 46 46 46 46 46 46 46 46 46 46 47 47 48 49 49 49 49 48 48 49 50 53 54 55 56 55 54 53 52 51 50 49 50 49 47 45 44 45 46 48 51 54 55 55 56 55 55 55 54 54 54 54 54 54 55 55 54 54 54 55 55 55 56 57 58 58 58 58 58 58 59 59 59 60 60 61 61 60 59 57 58 58 59 60 62 64 65 66 67 68 68 68 68
46 45 46 46 46 46 46 46 46 46 46 46 46 46 46 46 46 46 46 46 46 46 47 48 48 48 48 47 48 48 49 51 52 53 54 55 55 54 51 50 50 51 51 50 48 46 44 45 46 46 47 51 53 54 55 55 55 55 55 55 55 55 55 55 55 54 54 54 54 54 54 55 55 56 57 58 58 58 58 58 58 59 59 59 59 60 60 59 59 59 59 59 58 58 59 63 64 65 66 67 67 68 68
46 46 46 46 46 46 46 46 46 46 46 46 46 46 46 46 46 46 46 46 46 46 46 47 47 47 48 48 47 48 48 49 50 51 52 54 55 55 54 53 52 50 48 46 45 44 44 46 46 46 46 49 51 52 53 54 55 55 55 56 55 55 55 55 55 55 55 55 54 54 54 55 55 56 57 58 58 58 59 58 58 58 59 59 59 59 59 59 60 60 60 61 59 59 59 61 64 64 65 66 67 67 68
46 46 46 46 46 46 46 46 46 46 45 46 46 46 46 46 46 46 46 46 46 46 46 46 46 46 47 48 48 47 47 48 50 51 52 53 53 54 55 54 53 51 49 47 47 48 49 51 50 49 48 49 49 50 51 52 53 55 55 55 55 56 56 56 56 56 56 55 55 55 55 55 55 55 56 57 57 58 58 59 59 59 59 59 59 59 59 59 59 59 60 60 61 60 59 61 63 64 65 66 67 67 67
47 47 46 46 46 46 47 47 47 46 46 46 46 46 46 46 47 47 46 46 46 46 46 46 47 47 47 48 48 48 47 47 48 49 51 51 52 52 53 53 53 54 54 53 53 54 54 54 53 51 50 49 49 49 49 49 50 51 53 54 55 55 56 57 57 57 57 57 56 56 55 55 55 56 56 56 57 57 58 58 58 58 59 59 59 59 59 58 58 58 59 59 60 60 59 62 64 64 65 66 66 67 67
47 47 47 48 48 48 48 48 48 47 46 46 46 46 46 46 46 46 46 46 46 47 47 47 47 47 48 48 48 48 47 47 47 48 48 50 50 51 52 52 53 53 53 53 54 54 54 52 51 50 50 48 47 47 48 48 48 48 49 51 53 55 56 56 57 57 57 57 57 57 56 56 56 56 56 56 56 57 57 58 58 58 58 58 58 58 58 57 57 57 57 58 58 59 61 62 63 64 65 66 66 67 67
47 48 48 48 48 48 49 49 49 48 48 48 47 46 46 46 46 46 46 46 47 47 47 47 47 47 48 47 48 48 47 47 47 48 48 49 49 50 51 51 52 52 53 54 54 54 55 53 52 50 50 48 46 46 45 46 46 47 47 49 50 52 54 54 55 56 56 57 57 57 57 57 57 56 56 56 56 56 57 57 57 58 58 58 58 58 58 58 58 58 58 58 58 59 61 62 63 64 65 66 66 66 67
46 47 48 48 48 48 49 49 49 49 49 49 48 47 47 46 46 46 46 46 47 47 47 47 47 47 48 48 48 48 48 47 47 47 48 48 49 49 50 51 51 52 53 53 54 54 54 54 54 53 52 50 49 47 46 46 46 47 47 47 48 49 50 50 52 53 54 55 56 57 57 57 57 57 56 56 56 56 56 56 57 57 58 58 58 58 58 58 58 58 59 59 59 59 59 60 62 64 64 65 66 66 67